Location: Newark
(46.7636°N, 1.8358°W)
Time: 17:02:35
(UTC+00:00)

Transit 4A - Visible Passes

Search period start: 20 October 2019 00:00
Search period end: 30 October 2019 00:00
Orbit: 867 x 978 km, 66.8° (Epoch: 19 October)

Date Brightness Start Highest point End Pass type
(mag) Time Alt. Az. Time Alt. Az. Time Alt. Az.
20 Oct 9.4 04:02:48 10° S 04:08:26 35° ESE 04:13:59 10° NE visible
20 Oct 8.2 05:48:26 10° SW 05:54:37 52° NW 06:00:41 10° NNE visible
21 Oct 8.8 04:11:35 10° S 04:17:37 49° ESE 04:23:35 10° NE visible
21 Oct 8.5 05:58:15 10° WSW 06:04:08 39° NW 06:09:57 10° NNE visible
22 Oct 10.5 02:39:07 10° SE 02:41:34 12° E 02:44:00 10° ENE visible
22 Oct 8.2 04:22:10 19° SSW 04:26:52 69° ESE 04:33:03 10° NE visible
23 Oct 10.0 02:48:53 17° SE 02:50:33 19° ESE 02:54:45 10° ENE visible
23 Oct 7.9 04:32:28 27° SW 04:36:11 86° WNW 04:42:27 10° NNE visible
24 Oct 9.5 02:58:58 27° ESE 02:59:37 27° ESE 03:04:46 10° NE visible
24 Oct 7.9 04:42:33 31° WSW 04:45:35 64° NW 04:51:46 10° NNE visible
25 Oct 9.0 03:08:55 39° ESE 03:08:55 39° ESE 03:14:28 10° NE visible
25 Oct 8.2 04:52:28 31° W 04:55:04 47° NW 05:01:02 10° NNE visible
26 Oct 8.5 03:18:42 53° E 03:18:42 53° E 03:24:02 10° NE visible
26 Oct 8.6 05:02:15 27° W 05:04:37 36° NW 05:10:16 10° NNE visible
27 Oct 10.7 01:44:50 10° ENE 01:44:50 10° ENE 01:45:02 10° ENE visible
27 Oct 8.3 03:28:23 60° NE 03:28:23 60° NE 03:33:27 10° NE visible
27 Oct 8.9 05:11:56 22° WNW 05:14:15 28° NW 05:19:29 10° NNE visible
28 Oct 10.5 01:54:26 13° ENE 01:54:26 13° ENE 01:55:25 10° ENE visible
28 Oct 8.3 03:37:59 56° NNE 03:37:59 56° NNE 03:42:49 10° NNE visible
28 Oct 9.2 05:21:31 18° WNW 05:23:57 22° NNW 05:28:41 10° NNE visible
29 Oct 10.4 02:03:58 16° ENE 02:03:58 16° ENE 02:05:18 10° NE visible
29 Oct 8.5 03:47:30 46° N 03:47:30 46° N 03:52:07 10° NNE visible
29 Oct 9.5 05:31:02 14° WNW 05:33:45 18° NNW 05:37:52 10° NNE visible
